| time (UTC) | temp F | wind direction | speed knots | gust knots | rain 1hr in | rain 24hr in | rain mn in | humidity % | barometer mb |
| 20260504223345 | 50 | 310 | 6.1 | 14.8 | 0.00 | 0.08 | 0.00 | 71 | 1027.9 |
| 20260504220322 | 48 | 210 | 4.3 | 11.3 | 0.00 | 1.10 | 0.00 | 74 | 1027.6 |
| 20260504213322 | 47 | 325 | 7.8 | 13.0 | 0.00 | 1.10 | 0.00 | 76 | 1026.9 |
| 20260504210319 | 46 | 306 | 3.5 | 6.1 | 0.00 | 1.22 | 0.00 | 80 | 1026.8 |
| 20260504203320 | 45 | 283 | 2.6 | 4.3 | 0.00 | 1.22 | 0.00 | 81 | 1026.4 |
| 20260504200318 | 44 | 86 | 1.7 | 12.2 | 0.00 | 1.26 | 0.00 | 82 | 1025.6 |
| 20260504193317 | 44 | 1 | 4.3 | 12.2 | 0.00 | 1.26 | 0.00 | 83 | 1024.9 |
| 20260504190316 | 44 | 302 | 2.6 | 13.9 | 0.00 | 1.54 | 0.00 | 82 | 1024.5 |
| 20260504183316 | 44 | 307 | 4.3 | 10.4 | 0.00 | 1.54 | 0.00 | 81 | 1023.9 |
| 20260504180334 | 44 | 323 | 3.5 | 12.2 | 0.00 | 2.09 | 0.00 | 82 | 1023.3 |
| 20260504173334 | 44 | 298 | 3.5 | 9.6 | 0.00 | 2.09 | 0.00 | 81 | 1022.7 |
| 20260504170332 | 44 | 300 | 7.0 | 14.8 | 0.00 | 2.40 | 0.00 | 81 | 1022.3 |
| 20260504160330 | 45 | 291 | 8.7 | 19.1 | 0.00 | 2.44 | 0.00 | 78 | 1020.8 |
| 20260504150326 | 46 | 301 | 4.3 | 17.4 | 0.00 | 2.44 | 0.49 | 77 | 1019.2 |
| 20260504140346 | 47 | 324 | 7.8 | 17.4 | 0.00 | 2.44 | 0.49 | 80 | 1018.5 |
| 20260504130323 | 48 | 312 | 8.7 | 22.6 | 0.00 | 2.56 | 0.49 | 83 | 1017.8 |
| 20260504120316 | 49 | 330 | 12.2 | 23.5 | 0.00 | 2.68 | 0.49 | 82 | 1015.6 |
| 20260504110334 | 54 | 307 | 7.8 | 17.4 | 0.00 | 2.68 | 0.49 | 72 | 1014.1 |
| 20260504100332 | 55 | 228 | 7.0 | 21.7 | 0.00 | 2.68 | 0.49 | 73 | 1012.3 |
| 20260504080326 | 57 | 307 | 7.8 | 24.3 | 0.04 | 2.68 | 0.49 | 73 | 1010.4 |
| 20260504070325 | 57 | 312 | 3.5 | 8.7 | 0.00 | 2.64 | 0.48 | 78 | 1010.1 |
| 20260504050321 | 61 | 293 | 5.2 | 15.6 | 0.00 | 2.64 | 0.48 | 76 | 1009.0 |
| 20260504043340 | 61 | 274 | 6.1 | 16.5 | 0.00 | 2.64 | 0.48 | 78 | 1009.4 |
| 20260504040318 | 62 | 288 | 3.5 | 11.3 | 0.00 | 2.64 | 0.48 | 77 | 1009.3 |
| 20260504033317 | 63 | 299 | 2.6 | 9.6 | 0.00 | 2.64 | 0.48 | 76 | 1009.2 |
| 20260504030354 | 64 | 316 | 4.3 | 13.0 | 0.00 | 2.64 | 0.48 | 75 | 1009.1 |
| 20260504023333 | 65 | 347 | 6.1 | 13.0 | 0.00 | 2.64 | 0.48 | 75 | 1008.9 |
| 20260504020332 | 63 | 339 | 5.2 | 18.2 | 0.00 | 2.64 | 0.48 | 77 | 1009.3 |
| 20260504013331 | 62 | 303 | 4.3 | 13.9 | 0.00 | 2.64 | 0.48 | 78 | 1009.2 |
| 20260504010329 | 61 | 260 | 1.7 | 8.7 | 0.00 | 2.64 | 0.48 | 82 | 1009.5 |
| 20260504003330 | 61 | 319 | 4.3 | 14.8 | 0.00 | 2.64 | 0.48 | 86 | 1009.4 |
| 20260504000327 | 60 | 297 | 3.5 | 6.1 | 0.04 | 2.64 | 0.48 | 90 | 1009.8 |
| 20260503233327 | 59 | 252 | 1.7 | 7.8 | 0.04 | 2.64 | 0.48 | 94 | 1009.1 |
| 20260503230325 | 60 | 218 | 0.0 | 2.6 | 0.00 | 2.60 | 0.47 | 96 | 1008.6 |